CYGFM03

Last updated on Oct. 27, 2021, 12:02 a.m. UTC

1 41891U 16078H   21299.29326660  .00001088  00000-0  57370-4 0  9995
2 41891  34.9545 209.2768 0012937 171.0246 189.0699 15.15723861269268
UTC
Height (km)
Latitude
Longitude
Inclination
Orbital Period
UTC large
Height (km)
Speed (km/s)
/
Latitude / Longitude
Inclination (degrees)
Orbital Period (minutes)
Azimuth
Elevation
Range (km)
Doppler Factor
iOS Compass Heading
iOS Angle